Weather History for KMCK - October, 2013

Change the Weather History Date:

Monday, October 14, 2013

  Actual Average Record
Temperature  
Mean Temperature 58 °F 52 °F  
Max Temperature 74 °F 67 °F 94 °F (1929)
Min Temperature 42 °F 37 °F 23 °F (1986)
Degree Days  
Heating Degree Days 6    
Growing Degree Days 8 (Base 50)    
Moisture  
Dew Point 50 °F    
Average Humidity 77    
Maximum Humidity 97    
Minimum Humidity 38    
Precipitation  
Precipitation 0.18 in 0.06 in 0.52 in (2008)
Month to date precipitation 0.54 0.82  
Year to date precipitation 12.06 19.97  
Sea Level Pressure  
Sea Level Pressure 29.86 in    
Wind  
Wind Speed 16 mph (SSW)    
Max Wind Speed 34 mph    
Max Gust Speed 44 mph    
Visibility 8 miles    
Events Rain , Thunderstorm    
T = Trace of Precipitation, MM = Missing Value Source: NWS Daily Summary

Daily Weather History Graph

Daily Weather History Graph

Search for Another Location

Airport or City:

Trip Planner

Search our weather history database for the weather conditions in past years. The results will help you decide how hot, cold, wet, or windy it might be!

Date:

Astronomy

Oct. 14, 2013 Rise Set
Actual Time 7:52 AM CDT 7:03 PM CDT
Civil Twilight 7:24 AM CDT 7:30 PM CDT
Nautical Twilight 6:53 AM CDT 8:02 PM CDT
Astronomical Twilight 6:21 AM CDT 8:33 PM CDT
Moon 4:34 PM CDT (10/14) 3:10 AM CDT (10/14)
Length of Visible Light 12h 06m
Length of Day
11h 11m
Waxing Gibbous, 79% of the Moon is Illuminated
Oct 14
Waxing Gibbous
Oct 18
Full
Oct 26
Last Quarter
Nov 3
New
Nov 9
First Quarter

Hourly Weather History & Observations

Time (CDT) Temp. Windchill Dew Point Humidity Pressure Visibility Wind Dir Wind Speed Gust Speed Precip Events Conditions
12:53 AM 59.0 °F - 50.0 °F 72% 30.06 in 10.0 mi SE 13.8 mph 24.2 mph N/A   Overcast
1:53 AM 59.0 °F - 52.0 °F 78% 30.05 in 10.0 mi SE 13.8 mph - N/A   Overcast
2:53 AM 59.0 °F - 53.1 °F 81% 30.03 in 9.0 mi SSE 11.5 mph 19.6 mph N/A   Overcast
3:53 AM 59.0 °F - 54.0 °F 83% 29.98 in 8.0 mi SE 10.4 mph - N/A   Overcast
4:33 AM 59.0 °F - 55.4 °F 88% 30.00 in 7.0 mi SSE 12.7 mph 20.7 mph 0.00 in   Overcast
4:53 AM 59.0 °F - 55.9 °F 90% 29.95 in 7.0 mi SSE 17.3 mph 24.2 mph 0.00 in Rain Light Rain
5:53 AM 57.9 °F - 55.9 °F 93% 29.92 in 6.0 mi South 17.3 mph 24.2 mph 0.00 in   Overcast
6:53 AM 57.9 °F - 55.9 °F 93% 29.90 in 6.0 mi SSE 15.0 mph 32.2 mph N/A   Overcast
7:53 AM 57.9 °F - 55.9 °F 93% 29.87 in 7.0 mi SSE 13.8 mph 23.0 mph 0.01 in   Overcast
8:53 AM 57.9 °F - 57.0 °F 97% 29.84 in 5.0 mi SSE 15.0 mph - 0.01 in   Overcast
9:34 AM 59.0 °F - 57.2 °F 94% 29.86 in 4.0 mi SSE 11.5 mph - 0.01 in Rain Rain
9:49 AM 59.0 °F - 57.2 °F 94% 29.85 in 3.0 mi South 12.7 mph 20.7 mph 0.03 in Rain , Thunderstorm Rain
9:53 AM 59.0 °F - 57.0 °F 93% 29.82 in 2.5 mi South 17.3 mph 24.2 mph 0.04 in Rain , Thunderstorm Rain
9:58 AM 59.0 °F - 55.4 °F 88% 29.83 in 3.0 mi South 15.0 mph 24.2 mph 0.02 in Rain Rain
10:45 AM 60.8 °F - 57.2 °F 88% 29.81 in 10.0 mi SSE 13.8 mph - 0.02 in   Overcast
10:53 AM 61.0 °F - 57.0 °F 87% 29.77 in 10.0 mi SSE 12.7 mph - 0.02 in   Overcast
11:17 AM 62.6 °F - 59.0 °F 88% 29.78 in 10.0 mi SSE 12.7 mph - 0.01 in   Overcast
11:53 AM 63.0 °F - 60.1 °F 90% 29.72 in 7.0 mi South 15.0 mph 21.9 mph 0.01 in   Overcast
12:07 PM 64.4 °F - 59.0 °F 83% 29.75 in 10.0 mi South 17.3 mph 26.5 mph N/A Thunderstorm Overcast
12:21 PM 62.6 °F - 59.0 °F 88% 29.77 in 1.8 mi SW 33.4 mph 43.7 mph 0.06 in Rain , Thunderstorm Heavy Thunderstorms and Rain
12:29 PM 59.0 °F - 51.8 °F 77% 29.70 in 1.8 mi SW 8.1 mph 43.7 mph 0.08 in Rain , Thunderstorm Thunderstorms and Rain
12:31 PM 59.0 °F - 51.8 °F 77% 29.71 in 3.0 mi SSW 9.2 mph 39.1 mph 0.08 in Rain , Thunderstorm Light Thunderstorms and Rain
12:53 PM 61.0 °F - 55.9 °F 83% 29.69 in 10.0 mi South 16.1 mph - 0.09 in   Mostly Cloudy
1:53 PM 66.9 °F - 55.9 °F 68% 29.65 in 10.0 mi South 18.4 mph - N/A   Partly Cloudy
2:53 PM 73.9 °F - 46.9 °F 38% 29.60 in 10.0 mi SW 23.0 mph 33.4 mph N/A   Clear
3:53 PM 66.9 °F - 46.9 °F 49% 29.64 in 10.0 mi WNW 24.2 mph 33.4 mph N/A   Clear
4:53 PM 62.1 °F - 46.0 °F 56% 29.71 in 10.0 mi WNW 28.8 mph 43.7 mph N/A   Clear
5:53 PM 57.0 °F - 45.0 °F 64% 29.79 in 10.0 mi WNW 34.5 mph 42.6 mph N/A   Mostly Cloudy
6:51 PM 51.8 °F - 41.0 °F 67% 29.88 in 10.0 mi WNW 23.0 mph 36.8 mph N/A   Overcast
6:53 PM 52.0 °F - 41.0 °F 66% 29.87 in 10.0 mi WNW 25.3 mph 36.8 mph N/A   Overcast
7:13 PM 51.8 °F - 39.2 °F 62% 29.90 in 10.0 mi WNW 23.0 mph 36.8 mph N/A   Overcast
7:53 PM 48.0 °F - 39.0 °F 71% 29.91 in 10.0 mi WNW 21.9 mph 34.5 mph N/A   Partly Cloudy
8:53 PM 46.0 °F 38.0 °F 37.0 °F 71% 29.95 in 10.0 mi WNW 21.9 mph 27.6 mph N/A   Scattered Clouds
9:04 PM 46.4 °F 39.5 °F 37.4 °F 71% 29.95 in 10.0 mi WNW 17.3 mph 28.8 mph N/A   Mostly Cloudy
9:53 PM 46.9 °F - 37.0 °F 68% 29.96 in 10.0 mi NW 24.2 mph 29.9 mph N/A   Overcast
10:30 PM 46.4 °F 38.3 °F 35.6 °F 66% 30.00 in 10.0 mi NW 23.0 mph 33.4 mph N/A   Scattered Clouds
10:53 PM 46.0 °F 38.8 °F 36.0 °F 68% 30.00 in 10.0 mi WNW 18.4 mph - N/A   Mostly Cloudy
11:13 PM 44.6 °F 36.9 °F 35.6 °F 71% 30.02 in 10.0 mi WNW 18.4 mph 29.9 mph N/A   Scattered Clouds
11:53 PM 44.1 °F 35.0 °F 33.1 °F 65% 30.02 in 10.0 mi WNW 24.2 mph 32.2 mph N/A   Clear